| time (UTC) | temp C | wind direction | speed KPH | gust KPH | rain 1hr cm | rain 24hr cm | rain mn cm | humidity % | barometer mb |
| 20260906072211 | 20 | 171 | 0.0 | 0.0 | 0.00 | 0.00 | 0.00 | 99 | 1014.9 |
| 20260906071707 | 20 | 168 | 0.0 | 0.0 | 0.00 | 0.00 | 0.00 | 99 | 1014.9 |
| 20260906071207 | 20 | 172 | 0.0 | 0.0 | 0.00 | 0.00 | 0.00 | 99 | 1015.0 |
| 20260906070703 | 20 | 139 | 0.0 | 0.0 | 0.00 | 0.00 | 0.00 | 99 | 1014.9 |
| 20260906070159 | 20 | 111 | 1.6 | 1.6 | 0.00 | 0.00 | 0.00 | 99 | 1014.8 |
| 20260906065658 | 20 | 156 | 0.0 | 0.0 | 0.00 | 0.00 | 0.00 | 99 | 1015.1 |
| 20260906065154 | 20 | 165 | 0.0 | 0.0 | 0.00 | 0.00 | 0.00 | 99 | 1015.2 |
| 20260906064649 | 20 | 160 | 0.0 | 0.0 | 0.00 | 0.00 | 0.00 | 99 | 1015.3 |
| 20260906064144 | 20 | 159 | 0.0 | 0.0 | 0.00 | 0.00 | 0.00 | 99 | 1015.4 |
| 20260906063639 | 20 | 156 | 0.0 | 0.0 | 0.00 | 0.00 | 0.00 | 99 | 1015.4 |
| 20260906063135 | 20 | 167 | 0.0 | 0.0 | 0.00 | 0.00 | 0.00 | 99 | 1015.3 |
| 20260906062631 | 20 | 180 | 0.0 | 0.0 | 0.00 | 0.00 | 0.00 | 99 | 1015.4 |
| 20260906062129 | 20 | 170 | 0.0 | 0.0 | 0.00 | 0.00 | 0.00 | 99 | 1015.5 |
| 20260906061626 | 20 | 173 | 0.0 | 0.0 | 0.00 | 0.00 | 0.00 | 99 | 1015.4 |
| 20260906061125 | 20 | 169 | 0.0 | 0.0 | 0.00 | 0.00 | 0.00 | 99 | 1015.8 |
| 20260906060622 | 20 | 155 | 0.0 | 0.0 | 0.00 | 0.00 | 0.00 | 99 | 1015.7 |
| 20260906060119 | 21 | 161 | 0.0 | 0.0 | 0.00 | 0.00 | 0.00 | 99 | 1015.8 |
| 20260906055615 | 21 | 173 | 0.0 | 0.0 | 0.00 | 0.00 | 0.00 | 99 | 1015.9 |
| 20260906055109 | 21 | 166 | 0.0 | 0.0 | 0.00 | 0.00 | 0.00 | 99 | 1016.1 |
| 20260906054604 | 21 | 179 | 0.0 | 1.6 | 0.00 | 0.00 | 0.00 | 99 | 1016.0 |
| 20260906054100 | 21 | 173 | 0.0 | 0.0 | 0.00 | 0.00 | 0.00 | 99 | 1015.8 |
| 20260906053556 | 21 | 167 | 0.0 | 0.0 | 0.00 | 0.00 | 0.00 | 99 | 1015.9 |
| 20260906053051 | 21 | 168 | 0.0 | 0.0 | 0.00 | 0.00 | 0.00 | 99 | 1015.8 |
| 20260906052546 | 21 | 169 | 0.0 | 0.0 | 0.00 | 0.00 | 0.00 | 99 | 1016.3 |
| 20260906052044 | 21 | 162 | 0.0 | 0.0 | 0.00 | 0.00 | 0.00 | 99 | 1016.0 |
| 20260906051539 | 21 | 170 | 0.0 | 0.0 | 0.00 | 0.00 | 0.00 | 99 | 1016.1 |
| 20260906051034 | 21 | 171 | 0.0 | 0.0 | 0.00 | 0.00 | 0.00 | 99 | 1016.2 |
| 20260906050529 | 21 | 161 | 0.0 | 0.0 | 0.00 | 0.00 | 0.00 | 99 | 1016.3 |
| 20260906050024 | 21 | 156 | 0.0 | 0.0 | 0.00 | 0.00 | 0.00 | 99 | 1016.5 |
| 20260906045522 | 21 | 169 | 0.0 | 0.0 | 0.00 | 0.00 | 0.00 | 99 | 1016.5 |
| 20260906045018 | 21 | 170 | 0.0 | 0.0 | 0.00 | 0.00 | 0.00 | 99 | 1016.3 |
| 20260906044514 | 21 | 171 | 0.0 | 0.0 | 0.00 | 0.00 | 0.00 | 99 | 1016.3 |
| 20260906044009 | 21 | 175 | 0.0 | 0.0 | 0.00 | 0.00 | 0.00 | 99 | 1016.4 |
| 20260906043505 | 21 | 176 | 0.0 | 0.0 | 0.00 | 0.00 | 0.00 | 99 | 1016.4 |
| 20260906043001 | 21 | 172 | 0.0 | 0.0 | 0.00 | 0.00 | 0.00 | 99 | 1016.3 |
| 20260906042459 | 21 | 169 | 0.0 | 0.0 | 0.00 | 0.00 | 0.00 | 99 | 1016.5 |
| 20260906041959 | 21 | 180 | 0.0 | 0.0 | 0.00 | 0.00 | 0.00 | 99 | 1016.6 |
| 20260906041456 | 21 | 170 | 0.0 | 0.0 | 0.00 | 0.00 | 0.00 | 99 | 1016.5 |
| 20260906040955 | 21 | 174 | 0.0 | 0.0 | 0.00 | 0.00 | 0.00 | 99 | 1016.5 |
| 20260906040450 | 21 | 158 | 0.0 | 0.0 | 0.00 | 0.00 | 0.00 | 99 | 1016.5 |
| 20260906035946 | 21 | 169 | 0.0 | 0.0 | 0.00 | 0.00 | 0.00 | 99 | 1016.4 |
| 20260906035441 | 21 | 168 | 0.0 | 0.0 | 0.00 | 0.00 | 0.00 | 99 | 1016.4 |
| 20260906034937 | 21 | 172 | 0.0 | 0.0 | 0.00 | 0.00 | 0.00 | 99 | 1016.6 |
| 20260906034431 | 21 | 155 | 0.0 | 0.0 | 0.00 | 0.00 | 0.00 | 99 | 1016.5 |
| 20260906033927 | 21 | 170 | 0.0 | 0.0 | 0.00 | 0.00 | 0.00 | 99 | 1016.8 |
| 20260906033427 | 21 | 170 | 0.0 | 0.0 | 0.00 | 0.00 | 0.00 | 99 | 1016.4 |
| 20260906032922 | 21 | 160 | 0.0 | 0.0 | 0.00 | 0.00 | 0.00 | 99 | 1016.4 |
| 20260906032418 | 21 | 134 | 1.6 | 1.6 | 0.00 | 0.00 | 0.00 | 99 | 1016.6 |
| 20260906031913 | 21 | 159 | 0.0 | 0.0 | 0.00 | 0.00 | 0.00 | 99 | 1016.9 |
| 20260906031408 | 21 | 178 | 0.0 | 0.0 | 0.00 | 0.00 | 0.00 | 99 | 1016.6 |
| 20260906030903 | 22 | 173 | 0.0 | 0.0 | 0.00 | 0.00 | 0.00 | 99 | 1016.7 |
| 20260906030358 | 21 | 172 | 0.0 | 0.0 | 0.00 | 0.00 | 0.00 | 99 | 1017.0 |
| 20260906025853 | 22 | 186 | 0.0 | 1.6 | 0.00 | 0.00 | 0.00 | 99 | 1016.6 |
| 20260906025347 | 22 | 170 | 0.0 | 0.0 | 0.00 | 0.00 | 0.00 | 99 | 1016.6 |
| 20260906024846 | 22 | 150 | 0.0 | 1.6 | 0.00 | 0.00 | 0.00 | 99 | 1016.3 |
| 20260906024345 | 22 | 164 | 0.0 | 0.0 | 0.00 | 0.00 | 0.00 | 99 | 1016.3 |
| 20260906023840 | 22 | 159 | 0.0 | 0.0 | 0.00 | 0.00 | 0.00 | 99 | 1016.1 |
| 20260906023337 | 22 | 173 | 0.0 | 0.0 | 0.00 | 0.00 | 0.00 | 99 | 1016.4 |
| 20260906022832 | 22 | 175 | 0.0 | 0.0 | 0.00 | 0.00 | 0.00 | 99 | 1016.3 |
| 20260906022327 | 22 | 171 | 0.0 | 0.0 | 0.00 | 0.00 | 0.00 | 99 | 1016.4 |
| 20260906021822 | 22 | 153 | 0.0 | 0.0 | 0.00 | 0.00 | 0.00 | 99 | 1016.4 |
| 20260906021321 | 22 | 169 | 0.0 | 0.0 | 0.00 | 0.00 | 0.00 | 99 | 1016.2 |
| 20260906020816 | 22 | 156 | 0.0 | 0.0 | 0.00 | 0.00 | 0.00 | 99 | 1016.1 |
| 20260906020315 | 22 | 171 | 0.0 | 0.0 | 0.00 | 0.00 | 0.00 | 99 | 1016.0 |
| 20260906015810 | 22 | 180 | 0.0 | 0.0 | 0.00 | 0.00 | 0.00 | 99 | 1016.0 |
| 20260906015308 | 22 | 170 | 0.0 | 0.0 | 0.00 | 0.00 | 0.00 | 99 | 1015.8 |
| 20260906014803 | 22 | 184 | 1.6 | 1.6 | 0.00 | 0.00 | 0.00 | 99 | 1016.0 |
| 20260906014259 | 22 | 171 | 0.0 | 0.0 | 0.00 | 0.00 | 0.00 | 99 | 1015.9 |
| 20260906013754 | 22 | 172 | 0.0 | 0.0 | 0.00 | 0.00 | 0.00 | 99 | 1016.2 |
| 20260906013249 | 22 | 163 | 0.0 | 0.0 | 0.00 | 0.00 | 0.00 | 99 | 1016.0 |
| 20260906012745 | 22 | 158 | 0.0 | 0.0 | 0.00 | 0.00 | 0.00 | 99 | 1016.1 |
| 20260906012240 | 22 | 163 | 0.0 | 0.0 | 0.00 | 0.00 | 0.00 | 99 | 1015.9 |
| 20260906011734 | 22 | 152 | 0.0 | 0.0 | 0.00 | 0.00 | 0.00 | 99 | 1015.9 |
| 20260906011229 | 23 | 173 | 0.0 | 0.0 | 0.00 | 0.00 | 0.00 | 99 | 1015.8 |
| 20260906010724 | 23 | 182 | 1.6 | 1.6 | 0.00 | 0.00 | 0.00 | 98 | 1015.5 |
| 20260906010221 | 23 | 176 | 0.0 | 0.0 | 0.00 | 0.00 | 0.00 | 97 | 1015.6 |
| 20260906005721 | 23 | 159 | 0.0 | 0.0 | 0.00 | 0.00 | 0.00 | 97 | 1015.6 |
| 20260906005215 | 23 | 170 | 0.0 | 0.0 | 0.00 | 0.00 | 0.00 | 97 | 1015.7 |
| 20260906004714 | 23 | 173 | 0.0 | 0.0 | 0.00 | 0.00 | 0.00 | 97 | 1015.8 |
| 20260906004209 | 23 | 170 | 0.0 | 0.0 | 0.00 | 0.00 | 0.00 | 97 | 1015.6 |
| 20260906003704 | 23 | 174 | 0.0 | 0.0 | 0.00 | 0.00 | 0.00 | 96 | 1015.6 |
| 20260906003200 | 23 | 175 | 0.0 | 0.0 | 0.00 | 0.00 | 0.00 | 96 | 1015.5 |
| 20260906002700 | 24 | 171 | 0.0 | 0.0 | 0.00 | 0.00 | 0.00 | 95 | 1015.7 |
| 20260906002154 | 24 | 169 | 0.0 | 0.0 | 0.00 | 0.00 | 0.00 | 95 | 1015.6 |
| 20260906001650 | 24 | 170 | 0.0 | 0.0 | 0.00 | 0.00 | 0.00 | 94 | 1015.8 |
| 20260906001149 | 24 | 172 | 0.0 | 1.6 | 0.00 | 0.00 | 0.00 | 94 | 1015.4 |
| 20260906000645 | 25 | 157 | 0.0 | 0.0 | 0.00 | 0.00 | 0.00 | 92 | 1015.3 |
| 20260906000141 | 25 | 170 | 0.0 | 0.0 | 0.00 | 0.00 | 0.00 | 93 | 1015.4 |
| 20260905235639 | 25 | 165 | 0.0 | 1.6 | 0.00 | 0.00 | 0.00 | 92 | 1015.2 |
| 20260905235135 | 25 | 176 | 0.0 | 0.0 | 0.00 | 0.00 | 0.00 | 91 | 1015.0 |
| 20260905234630 | 25 | 173 | 0.0 | 0.0 | 0.00 | 0.00 | 0.00 | 91 | 1015.0 |
| 20260905234126 | 26 | 180 | 1.6 | 1.6 | 0.00 | 0.00 | 0.00 | 89 | 1014.9 |
| 20260905233620 | 26 | 173 | 0.0 | 1.6 | 0.00 | 0.00 | 0.00 | 88 | 1014.6 |
| 20260905233114 | 26 | 186 | 1.6 | 1.6 | 0.00 | 0.00 | 0.00 | 87 | 1014.9 |
| 20260905232610 | 26 | 178 | 0.0 | 1.6 | 0.00 | 0.00 | 0.00 | 85 | 1014.7 |
| 20260905232106 | 27 | 185 | 1.6 | 1.6 | 0.00 | 0.00 | 0.00 | 83 | 1014.7 |
| 20260905231600 | 28 | 177 | 0.0 | 1.6 | 0.00 | 0.00 | 0.00 | 81 | 1014.8 |
| 20260905231057 | 28 | 173 | 0.0 | 1.6 | 0.00 | 0.00 | 0.00 | 76 | 1014.7 |
| 20260905230556 | 29 | 167 | 0.0 | 1.6 | 0.00 | 0.00 | 0.00 | 71 | 1015.0 |
| 20260905230055 | 30 | 216 | 0.0 | 1.6 | 0.00 | 0.00 | 0.00 | 70 | 1014.7 |
| 20260905225555 | 29 | 196 | 1.6 | 3.2 | 0.00 | 0.00 | 0.00 | 71 | 1014.9 |
| 20260905225049 | 30 | 322 | 1.6 | 3.2 | 0.00 | 0.00 | 0.00 | 70 | 1015.0 |
| 20260905224544 | 30 | 220 | 1.6 | 4.8 | 0.00 | 0.00 | 0.00 | 68 | 1015.0 |
| 20260905224043 | 30 | 167 | 0.0 | 1.6 | 0.00 | 0.00 | 0.00 | 68 | 1015.1 |
| 20260905223541 | 30 | 163 | 1.6 | 4.8 | 0.00 | 0.00 | 0.00 | 70 | 1014.8 |
| 20260905223037 | 30 | 359 | 3.2 | 3.2 | 0.00 | 0.00 | 0.00 | 70 | 1014.8 |
| 20260905222537 | 30 | 72 | 1.6 | 3.2 | 0.00 | 0.00 | 0.00 | 68 | 1014.7 |
| 20260905222032 | 30 | 133 | 0.0 | 3.2 | 0.00 | 0.00 | 0.00 | 69 | 1014.8 |
| 20260905221529 | 29 | 147 | 0.0 | 3.2 | 0.00 | 0.00 | 0.00 | 70 | 1014.7 |
| 20260905221024 | 28 | 191 | 0.0 | 0.0 | 0.00 | 0.00 | 0.00 | 73 | 1014.9 |
| 20260905220520 | 28 | 234 | 1.6 | 3.2 | 0.00 | 0.00 | 0.00 | 73 | 1015.0 |
| 20260905220016 | 28 | 210 | 1.6 | 1.6 | 0.00 | 0.00 | 0.00 | 72 | 1015.0 |
| 20260905215510 | 28 | 73 | 1.6 | 4.8 | 0.00 | 0.00 | 0.00 | 74 | 1015.0 |
| 20260905215006 | 28 | 174 | 0.0 | 3.2 | 0.00 | 0.00 | 0.00 | 74 | 1015.0 |
| 20260905214502 | 29 | 175 | 0.0 | 1.6 | 0.00 | 0.00 | 0.00 | 74 | 1015.3 |
| 20260905214002 | 28 | 205 | 1.6 | 4.8 | 0.00 | 0.00 | 0.00 | 72 | 1015.4 |
| 20260905213458 | 28 | 232 | 1.6 | 3.2 | 0.00 | 0.00 | 0.00 | 74 | 1015.1 |
| 20260905212953 | 28 | 177 | 1.6 | 1.6 | 0.00 | 0.00 | 0.00 | 74 | 1015.3 |
| 20260905212447 | 28 | 174 | 0.0 | 1.6 | 0.00 | 0.00 | 0.00 | 75 | 1015.2 |
| 20260905211947 | 27 | 172 | 1.6 | 3.2 | 0.00 | 0.00 | 0.00 | 75 | 1015.5 |
| 20260905211442 | 27 | 175 | 3.2 | 3.2 | 0.00 | 0.00 | 0.00 | 76 | 1015.8 |
| 20260905210938 | 27 | 173 | 0.0 | 4.8 | 0.00 | 0.00 | 0.00 | 78 | 1015.7 |
| 20260905210433 | 27 | 262 | 1.6 | 3.2 | 0.00 | 0.00 | 0.00 | 79 | 1015.9 |
| 20260905205932 | 27 | 207 | 4.8 | 4.8 | 0.00 | 0.00 | 0.00 | 84 | 1015.7 |
| 20260905205427 | 27 | 192 | 1.6 | 1.6 | 0.00 | 0.00 | 0.00 | 81 | 1015.9 |
| 20260905204926 | 27 | 172 | 0.0 | 3.2 | 0.00 | 0.00 | 0.00 | 79 | 1015.7 |
| 20260905204422 | 26 | 163 | 0.0 | 3.2 | 0.00 | 0.00 | 0.00 | 80 | 1015.7 |
| 20260905203921 | 26 | 189 | 1.6 | 4.8 | 0.00 | 0.00 | 0.00 | 80 | 1015.8 |
| 20260905203416 | 26 | 155 | 0.0 | 1.6 | 0.00 | 0.00 | 0.00 | 80 | 1015.5 |
| 20260905202912 | 26 | 158 | 0.0 | 3.2 | 0.00 | 0.00 | 0.00 | 81 | 1015.5 |
| 20260905202407 | 26 | 94 | 1.6 | 3.2 | 0.00 | 0.00 | 0.00 | 81 | 1015.6 |
| 20260905201902 | 27 | 135 | 1.6 | 4.8 | 0.00 | 0.00 | 0.00 | 80 | 1015.4 |
| 20260905201358 | 27 | 109 | 3.2 | 3.2 | 0.00 | 0.00 | 0.00 | 78 | 1015.3 |
| 20260905200852 | 27 | 134 | 1.6 | 8.0 | 0.00 | 0.00 | 0.00 | 76 | 1015.5 |
| 20260905200348 | 27 | 125 | 0.0 | 4.8 | 0.00 | 0.00 | 0.00 | 76 | 1015.8 |
| 20260905195846 | 27 | 58 | 4.8 | 4.8 | 0.00 | 0.00 | 0.00 | 76 | 1016.1 |
| 20260905195341 | 27 | 236 | 0.0 | 8.0 | 0.00 | 0.00 | 0.00 | 74 | 1016.4 |
| 20260905194837 | 28 | 218 | 0.0 | 8.0 | 0.00 | 0.00 | 0.00 | 73 | 1016.4 |
| 20260905194337 | 28 | 189 | 1.6 | 1.6 | 0.00 | 0.00 | 0.00 | 73 | 1016.2 |
| 20260905193836 | 28 | 98 | 3.2 | 11.3 | 0.00 | 0.00 | 0.00 | 72 | 1016.1 |
| 20260905193331 | 29 | 25 | 4.8 | 11.3 | 0.00 | 0.00 | 0.00 | 71 | 1015.7 |
| 20260905192827 | 30 | 24 | 3.2 | 8.0 | 0.00 | 0.00 | 0.00 | 69 | 1015.4 |
| 20260905192322 | 30 | 334 | 4.8 | 9.7 | 0.00 | 0.00 | 0.00 | 67 | 1015.3 |
| 20260905191821 | 31 | 62 | 3.2 | 3.2 | 0.00 | 0.00 | 0.00 | 65 | 1014.9 |
| 20260905191320 | 31 | 181 | 1.6 | 1.6 | 0.00 | 0.00 | 0.00 | 64 | 1014.9 |
| 20260905190819 | 31 | 212 | 1.6 | 1.6 | 0.00 | 0.00 | 0.00 | 64 | 1014.6 |
| 20260905190318 | 31 | 147 | 0.0 | 12.9 | 0.00 | 0.00 | 0.00 | 64 | 1014.5 |
| 20260905185812 | 32 | 27 | 11.3 | 16.1 | 0.00 | 0.00 | 0.00 | 61 | 1014.6 |
| 20260905185307 | 33 | 4 | 6.4 | 11.3 | 0.00 | 0.00 | 0.00 | 61 | 1014.8 |
| 20260905184806 | 35 | 320 | 4.8 | 14.5 | 0.00 | 0.00 | 0.00 | 59 | 1015.1 |
| 20260905184300 | 36 | 359 | 4.8 | 4.8 | 0.00 | 0.00 | 0.00 | 55 | 1015.0 |
| 20260905183759 | 36 | 78 | 1.6 | 8.0 | 0.00 | 0.00 | 0.00 | 56 | 1014.9 |
| 20260905183254 | 36 | 223 | 3.2 | 8.0 | 0.00 | 0.00 | 0.00 | 59 | 1015.1 |
| 20260905182754 | 37 | 341 | 6.4 | 8.0 | 0.00 | 0.00 | 0.00 | 56 | 1014.9 |
| 20260905182254 | 36 | 232 | 8.0 | 11.3 | 0.00 | 0.00 | 0.00 | 57 | 1015.3 |
| 20260905181749 | 36 | 323 | 1.6 | 3.2 | 0.00 | 0.00 | 0.00 | 56 | 1015.2 |
| 20260905181248 | 37 | 356 | 4.8 | 4.8 | 0.00 | 0.00 | 0.00 | 56 | 1015.5 |
| 20260905180743 | 36 | 102 | 4.8 | 8.0 | 0.00 | 0.00 | 0.00 | 57 | 1015.3 |
| 20260905180238 | 36 | 211 | 4.8 | 9.7 | 0.00 | 0.00 | 0.00 | 56 | 1015.7 |
| 20260905175733 | 36 | 95 | 1.6 | 9.7 | 0.00 | 0.00 | 0.00 | 55 | 1015.4 |
| 20260905175227 | 36 | 236 | 1.6 | 12.9 | 0.00 | 0.00 | 0.00 | 54 | 1015.8 |
| 20260905174722 | 36 | 46 | 1.6 | 4.8 | 0.00 | 0.00 | 0.00 | 55 | 1016.0 |
| 20260905174218 | 37 | 351 | 4.8 | 8.0 | 0.00 | 0.00 | 0.00 | 55 | 1016.1 |
| 20260905173708 | 36 | 251 | 1.6 | 8.0 | 0.00 | 0.00 | 0.00 | 58 | 1016.2 |
| 20260905173204 | 35 | 217 | 1.6 | 4.8 | 0.00 | 0.00 | 0.00 | 63 | 1016.1 |
| 20260905172703 | 36 | 21 | 1.6 | 4.8 | 0.00 | 0.00 | 0.00 | 61 | 1016.5 |
| 20260905172157 | 36 | 331 | 4.8 | 4.8 | 0.00 | 0.00 | 0.00 | 60 | 1016.4 |
| 20260905171653 | 36 | 92 | 3.2 | 4.8 | 0.00 | 0.00 | 0.00 | 60 | 1016.5 |
| 20260905171149 | 35 | 259 | 8.0 | 11.3 | 0.00 | 0.00 | 0.00 | 62 | 1016.6 |
| 20260905170646 | 36 | 206 | 1.6 | 8.0 | 0.00 | 0.00 | 0.00 | 58 | 1016.4 |
| 20260905170140 | 35 | 262 | 3.2 | 9.7 | 0.00 | 0.00 | 0.00 | 62 | 1016.7 |
| 20260905165635 | 36 | 208 | 1.6 | 4.8 | 0.00 | 0.00 | 0.00 | 59 | 1016.8 |
| 20260905165130 | 36 | 18 | 4.8 | 4.8 | 0.00 | 0.00 | 0.00 | 60 | 1016.7 |
| 20260905164625 | 35 | 209 | 4.8 | 8.0 | 0.00 | 0.00 | 0.00 | 60 | 1016.9 |
| 20260905164124 | 35 | 172 | 3.2 | 4.8 | 0.00 | 0.00 | 0.00 | 62 | 1017.1 |
| 20260905163621 | 35 | 340 | 3.2 | 4.8 | 0.00 | 0.00 | 0.00 | 63 | 1017.1 |
| 20260905163117 | 35 | 210 | 4.8 | 4.8 | 0.00 | 0.00 | 0.00 | 64 | 1017.1 |
| 20260905162613 | 35 | 188 | 1.6 | 3.2 | 0.00 | 0.00 | 0.00 | 65 | 1016.9 |
| 20260905162112 | 35 | 58 | 3.2 | 4.8 | 0.00 | 0.00 | 0.00 | 66 | 1017.3 |
| 20260905161612 | 35 | 163 | 0.0 | 4.8 | 0.00 | 0.00 | 0.00 | 67 | 1017.2 |
| 20260905161109 | 34 | 89 | 1.6 | 8.0 | 0.00 | 0.00 | 0.00 | 67 | 1017.2 |
| 20260905160609 | 34 | 134 | 1.6 | 4.8 | 0.00 | 0.00 | 0.00 | 65 | 1017.3 |
| 20260905155558 | 35 | 133 | 1.6 | 3.2 | 0.00 | 0.00 | 0.00 | 68 | 1017.4 |
| 20260905155056 | 33 | 123 | 3.2 | 4.8 | 0.00 | 0.00 | 0.00 | 72 | 1017.2 |
| 20260905154551 | 33 | 235 | 1.6 | 4.8 | 0.00 | 0.00 | 0.00 | 72 | 1017.5 |
| 20260905154047 | 33 | 235 | 3.2 | 4.8 | 0.00 | 0.00 | 0.00 | 74 | 1017.6 |
| 20260905153543 | 33 | 149 | 0.0 | 4.8 | 0.00 | 0.00 | 0.00 | 72 | 1017.3 |
| 20260905153043 | 33 | 177 | 1.6 | 8.0 | 0.00 | 0.00 | 0.00 | 71 | 1017.2 |
| 20260905152537 | 34 | 289 | 3.2 | 4.8 | 0.00 | 0.00 | 0.00 | 72 | 1017.3 |
| 20260905152033 | 33 | 87 | 3.2 | 8.0 | 0.00 | 0.00 | 0.00 | 73 | 1017.3 |
| 20260905151528 | 33 | 239 | 4.8 | 8.0 | 0.00 | 0.00 | 0.00 | 72 | 1017.5 |
| 20260905151023 | 33 | 172 | 1.6 | 3.2 | 0.00 | 0.00 | 0.00 | 73 | 1017.5 |
| 20260905150518 | 33 | 205 | 1.6 | 8.0 | 0.00 | 0.00 | 0.00 | 74 | 1017.5 |
| 20260905150015 | 33 | 188 | 4.8 | 4.8 | 0.00 | 0.00 | 0.00 | 73 | 1017.7 |
| 20260905145509 | 33 | 182 | 1.6 | 8.0 | 0.00 | 0.00 | 0.00 | 73 | 1017.7 |
| 20260905145003 | 33 | 188 | 1.6 | 1.6 | 0.00 | 0.00 | 0.00 | 75 | 1017.8 |
| 20260905144458 | 33 | 195 | 3.2 | 3.2 | 0.00 | 0.00 | 0.00 | 74 | 1017.3 |
| 20260905143957 | 32 | 161 | 0.0 | 3.2 | 0.00 | 0.00 | 0.00 | 76 | 1017.7 |
| 20260905143456 | 32 | 174 | 1.6 | 3.2 | 0.00 | 0.00 | 0.00 | 74 | 1017.8 |
| 20260905142951 | 31 | 216 | 3.2 | 3.2 | 0.00 | 0.00 | 0.00 | 78 | 1017.7 |
| 20260905142450 | 31 | 206 | 4.8 | 8.0 | 0.00 | 0.00 | 0.00 | 80 | 1017.8 |
| 20260905141946 | 31 | 149 | 1.6 | 1.6 | 0.00 | 0.00 | 0.00 | 76 | 1017.7 |
| 20260905141440 | 31 | 169 | 0.0 | 3.2 | 0.00 | 0.00 | 0.00 | 80 | 1017.7 |
| 20260905140937 | 31 | 227 | 3.2 | 4.8 | 0.00 | 0.00 | 0.00 | 81 | 1017.6 |
| 20260905140432 | 31 | 174 | 0.0 | 3.2 | 0.00 | 0.00 | 0.00 | 80 | 1017.5 |
| 20260905135930 | 30 | 71 | 1.6 | 1.6 | 0.00 | 0.00 | 0.00 | 81 | 1017.6 |
| 20260905135426 | 31 | 185 | 1.6 | 3.2 | 0.00 | 0.00 | 0.00 | 79 | 1017.9 |
| 20260905134921 | 30 | 155 | 0.0 | 3.2 | 0.00 | 0.00 | 0.00 | 83 | 1018.0 |
| 20260905134420 | 30 | 260 | 4.8 | 4.8 | 0.00 | 0.00 | 0.00 | 83 | 1018.0 |
| 20260905133914 | 29 | 131 | 0.0 | 1.6 | 0.00 | 0.00 | 0.00 | 86 | 1017.7 |
| 20260905133409 | 28 | 266 | 1.6 | 3.2 | 0.00 | 0.00 | 0.00 | 86 | 1017.8 |
| 20260905132909 | 29 | 191 | 3.2 | 3.2 | 0.00 | 0.00 | 0.00 | 86 | 1017.9 |
| 20260905132404 | 28 | 204 | 1.6 | 3.2 | 0.00 | 0.00 | 0.00 | 89 | 1018.1 |
| 20260905131859 | 29 | 194 | 1.6 | 3.2 | 0.00 | 0.00 | 0.00 | 88 | 1018.0 |
| 20260905131355 | 29 | 201 | 1.6 | 1.6 | 0.00 | 0.00 | 0.00 | 87 | 1018.0 |
| 20260905130849 | 28 | 173 | 0.0 | 1.6 | 0.00 | 0.00 | 0.00 | 90 | 1018.0 |
| 20260905130348 | 27 | 173 | 1.6 | 3.2 | 0.00 | 0.00 | 0.00 | 92 | 1018.0 |
| 20260905125843 | 27 | 172 | 0.0 | 0.0 | 0.00 | 0.00 | 0.00 | 92 | 1018.3 |
| 20260905125338 | 27 | 159 | 0.0 | 1.6 | 0.00 | 0.00 | 0.00 | 95 | 1018.1 |
| 20260905124834 | 26 | 208 | 3.2 | 3.2 | 0.00 | 0.00 | 0.00 | 97 | 1018.1 |
| 20260905124331 | 26 | 183 | 1.6 | 3.2 | 0.00 | 0.00 | 0.00 | 99 | 1018.2 |
| 20260905123830 | 25 | 171 | 0.0 | 1.6 | 0.00 | 0.00 | 0.00 | 99 | 1018.0 |
| 20260905123327 | 24 | 169 | 0.0 | 1.6 | 0.00 | 0.00 | 0.00 | 99 | 1017.9 |
| 20260905122827 | 25 | 177 | 0.0 | 0.0 | 0.00 | 0.00 | 0.00 | 99 | 1018.1 |
| 20260905122326 | 24 | 167 | 0.0 | 0.0 | 0.00 | 0.00 | 0.00 | 99 | 1018.1 |
| 20260905121822 | 23 | 164 | 0.0 | 0.0 | 0.00 | 0.00 | 0.00 | 99 | 1018.1 |
| 20260905121319 | 23 | 170 | 0.0 | 0.0 | 0.00 | 0.00 | 0.00 | 99 | 1018.4 |
| 20260905120817 | 22 | 163 | 0.0 | 0.0 | 0.00 | 0.00 | 0.00 | 99 | 1018.2 |
| 20260905120312 | 22 | 169 | 0.0 | 0.0 | 0.00 | 0.00 | 0.00 | 99 | 1018.0 |
| 20260905115806 | 22 | 183 | 0.0 | 1.6 | 0.00 | 0.00 | 0.00 | 99 | 1018.1 |
| 20260905115306 | 22 | 172 | 0.0 | 0.0 | 0.00 | 0.00 | 0.00 | 99 | 1018.1 |
| 20260905114800 | 22 | 169 | 0.0 | 0.0 | 0.00 | 0.00 | 0.00 | 99 | 1017.8 |
| 20260905114259 | 22 | 171 | 0.0 | 0.0 | 0.00 | 0.00 | 0.00 | 99 | 1017.9 |
| 20260905113759 | 22 | 170 | 0.0 | 0.0 | 0.00 | 0.00 | 0.00 | 99 | 1017.6 |
| 20260905113255 | 22 | 172 | 0.0 | 0.0 | 0.00 | 0.00 | 0.00 | 99 | 1017.8 |
| 20260905112749 | 22 | 172 | 0.0 | 0.0 | 0.00 | 0.00 | 0.00 | 99 | 1017.6 |
| 20260905112244 | 22 | 171 | 0.0 | 0.0 | 0.00 | 0.00 | 0.00 | 99 | 1017.7 |
| 20260905111739 | 22 | 171 | 0.0 | 0.0 | 0.00 | 0.00 | 0.00 | 99 | 1017.5 |
| 20260905111233 | 22 | 172 | 0.0 | 0.0 | 0.00 | 0.00 | 0.00 | 99 | 1017.2 |
| 20260905110733 | 22 | 171 | 0.0 | 0.0 | 0.00 | 0.00 | 0.00 | 99 | 1017.3 |
| 20260905110227 | 22 | 165 | 0.0 | 0.0 | 0.00 | 0.00 | 0.00 | 99 | 1017.2 |
| 20260905105723 | 22 | 174 | 0.0 | 0.0 | 0.00 | 0.00 | 0.00 | 99 | 1017.0 |
| 20260905105222 | 22 | 180 | 0.0 | 1.6 | 0.00 | 0.00 | 0.00 | 99 | 1017.2 |
| 20260905104716 | 22 | 165 | 0.0 | 0.0 | 0.00 | 0.00 | 0.00 | 99 | 1017.1 |
| 20260905104213 | 22 | 161 | 0.0 | 0.0 | 0.00 | 0.00 | 0.00 | 99 | 1016.9 |
| 20260905103707 | 22 | 164 | 0.0 | 0.0 | 0.00 | 0.00 | 0.00 | 99 | 1016.9 |
| 20260905103203 | 22 | 171 | 0.0 | 0.0 | 0.00 | 0.00 | 0.00 | 99 | 1016.7 |
| 20260905102659 | 22 | 171 | 0.0 | 0.0 | 0.00 | 0.00 | 0.00 | 99 | 1016.7 |
| 20260905102155 | 22 | 171 | 0.0 | 0.0 | 0.00 | 0.00 | 0.00 | 99 | 1016.7 |
| 20260905101653 | 22 | 171 | 0.0 | 0.0 | 0.00 | 0.00 | 0.00 | 99 | 1017.0 |
| 20260905101152 | 22 | 168 | 0.0 | 0.0 | 0.00 | 0.00 | 0.00 | 99 | 1016.9 |
| 20260905100648 | 22 | 168 | 0.0 | 0.0 | 0.00 | 0.00 | 0.00 | 99 | 1016.7 |
| 20260905100143 | 22 | 162 | 0.0 | 0.0 | 0.00 | 0.00 | 0.00 | 99 | 1016.7 |
| 20260905095642 | 22 | 154 | 0.0 | 0.0 | 0.00 | 0.00 | 0.00 | 99 | 1016.9 |
| 20260905095137 | 22 | 164 | 0.0 | 0.0 | 0.00 | 0.00 | 0.00 | 99 | 1016.9 |
| 20260905094633 | 22 | 171 | 0.0 | 0.0 | 0.00 | 0.00 | 0.00 | 99 | 1016.3 |
| 20260905094132 | 22 | 169 | 0.0 | 0.0 | 0.00 | 0.00 | 0.00 | 99 | 1016.7 |
| 20260905093626 | 22 | 170 | 0.0 | 0.0 | 0.00 | 0.00 | 0.00 | 99 | 1016.8 |
| 20260905093122 | 22 | 156 | 0.0 | 0.0 | 0.00 | 0.00 | 0.00 | 99 | 1016.7 |
| 20260905092617 | 22 | 165 | 0.0 | 0.0 | 0.00 | 0.00 | 0.00 | 99 | 1016.7 |
| 20260905092113 | 22 | 165 | 0.0 | 0.0 | 0.00 | 0.00 | 0.00 | 99 | 1016.9 |
| 20260905091612 | 22 | 169 | 0.0 | 0.0 | 0.00 | 0.00 | 0.00 | 99 | 1016.8 |
| 20260905091107 | 22 | 161 | 0.0 | 0.0 | 0.00 | 0.00 | 0.00 | 99 | 1016.7 |
| 20260905090607 | 22 | 162 | 0.0 | 0.0 | 0.00 | 0.00 | 0.00 | 99 | 1016.7 |
| 20260905085601 | 22 | 171 | 0.0 | 0.0 | 0.00 | 0.00 | 0.00 | 99 | 1016.7 |
| 20260905085056 | 22 | 171 | 0.0 | 0.0 | 0.00 | 0.00 | 0.00 | 99 | 1016.7 |
| 20260905084556 | 22 | 171 | 0.0 | 0.0 | 0.00 | 0.00 | 0.00 | 99 | 1016.6 |
| 20260905084051 | 23 | 169 | 0.0 | 0.0 | 0.00 | 0.00 | 0.00 | 99 | 1016.9 |
| 20260905083545 | 23 | 169 | 0.0 | 0.0 | 0.00 | 0.00 | 0.00 | 99 | 1016.9 |
| 20260905083042 | 23 | 176 | 0.0 | 0.0 | 0.00 | 0.00 | 0.00 | 99 | 1017.1 |
| 20260905082537 | 23 | 171 | 0.0 | 0.0 | 0.00 | 0.00 | 0.00 | 99 | 1016.7 |
| 20260905082033 | 23 | 169 | 0.0 | 0.0 | 0.00 | 0.00 | 0.00 | 99 | 1017.0 |
| 20260905081532 | 23 | 166 | 0.0 | 0.0 | 0.00 | 0.00 | 0.00 | 99 | 1017.0 |
| 20260905081027 | 23 | 168 | 0.0 | 0.0 | 0.00 | 0.00 | 0.00 | 99 | 1017.2 |
| 20260905080526 | 23 | 162 | 0.0 | 0.0 | 0.00 | 0.00 | 0.00 | 99 | 1017.1 |
| 20260905080022 | 23 | 169 | 0.0 | 1.6 | 0.00 | 0.00 | 0.00 | 99 | 1017.1 |
| 20260905075509 | 23 | 167 | 0.0 | 0.0 | 0.00 | 0.00 | 0.00 | 99 | 1017.3 |
| 20260905075008 | 23 | 184 | 0.0 | 0.0 | 0.00 | 0.00 | 0.00 | 99 | 1017.3 |
| 20260905074458 | 23 | 166 | 0.0 | 0.0 | 0.00 | 0.00 | 0.00 | 99 | 1017.5 |
| 20260905073954 | 23 | 175 | 0.0 | 0.0 | 0.00 | 0.00 | 0.00 | 99 | 1017.4 |
| 20260905073448 | 23 | 165 | 0.0 | 0.0 | 0.00 | 0.00 | 0.00 | 99 | 1017.4 |
| 20260905072943 | 23 | 174 | 0.0 | 1.6 | 0.00 | 0.00 | 0.00 | 99 | 1017.3 |
| 20260905072438 | 23 | 175 | 0.0 | 0.0 | 0.00 | 0.00 | 0.00 | 99 | 1017.3 |